Check out our new BloomSky Weather System.

Active alerts


No alerts


Thunder radar  blitzortung!


Rain radar more information rain snow radar


Visit our other weather sites:

Template documentation
and downloads

And another site



Weather Underground History page Text

Daily Summary for February 2, 2017 Units:  English    Metric   Both
« Previous Day
Next Day »
Daily Weekly Monthly Yearly Custom
  High: Low: Average:
Temperature: 68.4 °F 53.6 °F 64.3 °F
Dew Point: 67.1 °F 47.1 °F 57.3 °F
Humidity: 97 % 58 % 79 %
Wind Speed: 9.0 mph 0.0 mph 2.7 mph
Wind Gust: 12.0 mph - -
Wind:- - West
Pressure: 30.24 in 30.05 in -
Precipitation: 0.00 in    
Historical Graphs
 
 
Tabular Data for February 2, 2017
Time Temperature Dew Point Pressure Wind Wind Speed Wind Gust Humidity Rainfall Rate (Hourly)
00:01 68.4 °F 65.7 °F 30.05 in South 3.0 mph 7.0 mph 91 % 0.00 in
00:06 68.4 °F 65.7 °F 30.05 in SSE 2.0 mph 7.0 mph 91 % 0.00 in
00:11 68.4 °F 65.7 °F 30.05 in SSE 5.0 mph 7.0 mph 91 % 0.00 in
00:16 68.4 °F 65.7 °F 30.05 in SE 4.0 mph 7.0 mph 91 % 0.00 in
00:21 68.4 °F 65.7 °F 30.05 in SSE 2.0 mph 6.0 mph 91 % 0.00 in
00:26 68.2 °F 65.5 °F 30.05 in SSW 3.0 mph 6.0 mph 91 % 0.00 in
00:31 68.2 °F 65.5 °F 30.05 in South 2.0 mph 6.0 mph 91 % 0.00 in
00:37 68.2 °F 65.5 °F 30.05 in South 3.0 mph 5.0 mph 91 % 0.00 in
00:42 68.0 °F 65.7 °F 30.05 in SSE 2.0 mph 5.0 mph 92 % 0.00 in
00:47 68.0 °F 65.7 °F 30.05 in South 2.0 mph 6.0 mph 92 % 0.00 in
00:52 68.0 °F 65.7 °F 30.05 in SSW 3.0 mph 6.0 mph 92 % 0.00 in
00:57 67.8 °F 65.5 °F 30.05 in South 1.0 mph 6.0 mph 92 % 0.00 in
01:02 67.8 °F 65.5 °F 30.05 in SSE 3.0 mph 6.0 mph 92 % 0.00 in
01:07 67.8 °F 65.5 °F 30.05 in SSE 3.0 mph 5.0 mph 92 % 0.00 in
01:12 67.6 °F 65.3 °F 30.05 in SSW 3.0 mph 6.0 mph 92 % 0.00 in
01:17 67.6 °F 65.3 °F 30.05 in SW 3.0 mph 6.0 mph 92 % 0.00 in
01:22 67.6 °F 65.3 °F 30.05 in SSE 2.0 mph 6.0 mph 92 % 0.00 in
01:27 67.6 °F 65.5 °F 30.06 in SSE 1.0 mph 6.0 mph 93 % 0.00 in
01:32 67.6 °F 65.5 °F 30.06 in SSW 2.0 mph 5.0 mph 93 % 0.00 in
01:37 67.5 °F 65.3 °F 30.06 in SSE 2.0 mph 5.0 mph 93 % 0.00 in
01:42 67.5 °F 65.3 °F 30.06 in SSE 3.0 mph 5.0 mph 93 % 0.00 in
01:47 67.5 °F 65.3 °F 30.06 in South 3.0 mph 4.0 mph 93 % 0.00 in
01:52 67.5 °F 65.3 °F 30.06 in SSE 2.0 mph 5.0 mph 93 % 0.00 in
01:57 67.5 °F 65.3 °F 30.06 in South 1.0 mph 5.0 mph 93 % 0.00 in
02:02 67.5 °F 65.3 °F 30.05 in SSE 5.0 mph 5.0 mph 93 % 0.00 in
02:07 67.6 °F 65.5 °F 30.06 in South 4.0 mph 5.0 mph 93 % 0.00 in
02:12 67.6 °F 65.5 °F 30.06 in SSE 2.0 mph 5.0 mph 93 % 0.00 in
02:17 67.5 °F 65.3 °F 30.06 in SSE 2.0 mph 5.0 mph 93 % 0.00 in
02:22 67.5 °F 65.7 °F 30.06 in SSE 3.0 mph 5.0 mph 94 % 0.00 in
02:27 67.5 °F 65.7 °F 30.06 in South 4.0 mph 5.0 mph 94 % 0.00 in
02:32 67.5 °F 65.7 °F 30.06 in SSE 3.0 mph 6.0 mph 94 % 0.00 in
02:37 67.3 °F 65.5 °F 30.06 in South 3.0 mph 6.0 mph 94 % 0.00 in
02:42 67.3 °F 65.5 °F 30.06 in South 4.0 mph 6.0 mph 94 % 0.00 in
02:47 67.3 °F 65.5 °F 30.06 in SSE 2.0 mph 8.0 mph 94 % 0.00 in
02:52 67.3 °F 65.5 °F 30.06 in South 1.0 mph 8.0 mph 94 % 0.00 in
02:57 67.3 °F 65.5 °F 30.06 in SSW 2.0 mph 8.0 mph 94 % 0.00 in
03:02 67.1 °F 65.3 °F 30.05 in SE 3.0 mph 6.0 mph 94 % 0.00 in
03:07 67.3 °F 65.5 °F 30.05 in SSE 3.0 mph 7.0 mph 94 % 0.00 in
03:12 67.3 °F 65.8 °F 30.05 in SE 4.0 mph 7.0 mph 95 % 0.00 in
03:17 67.3 °F 65.8 °F 30.05 in South 4.0 mph 7.0 mph 95 % 0.00 in
03:22 67.3 °F 65.8 °F 30.05 in South 2.0 mph 7.0 mph 95 % 0.00 in
03:28 67.5 °F 66.0 °F 30.05 in SW 2.0 mph 7.0 mph 95 % 0.00 in
03:33 67.3 °F 65.8 °F 30.06 in SSE 6.0 mph 6.0 mph 95 % 0.00 in
03:38 67.5 °F 66.0 °F 30.06 in South 2.0 mph 10.0 mph 95 % 0.00 in
03:43 67.3 °F 65.5 °F 30.06 in SSE 1.0 mph 10.0 mph 94 % 0.00 in
03:48 67.3 °F 65.8 °F 30.07 in West 1.0 mph 10.0 mph 95 % 0.00 in
03:53 67.3 °F 65.8 °F 30.08 in West 1.0 mph 6.0 mph 95 % 0.00 in
03:58 67.3 °F 65.8 °F 30.08 in West 1.0 mph 2.0 mph 95 % 0.00 in
04:03 67.3 °F 65.8 °F 30.08 in Calm   2.0 mph 95 % 0.00 in
04:08 67.3 °F 65.8 °F 30.08 in Calm   2.0 mph 95 % 0.00 in
04:13 67.3 °F 65.8 °F 30.07 in SW 1.0 mph 2.0 mph 95 % 0.00 in
04:18 67.3 °F 65.8 °F 30.07 in South 5.0 mph 5.0 mph 95 % 0.00 in
04:23 67.3 °F 65.8 °F 30.06 in SSE 5.0 mph 6.0 mph 95 % 0.00 in
04:28 67.3 °F 65.8 °F 30.06 in SE 4.0 mph 6.0 mph 95 % 0.00 in
04:33 67.5 °F 66.0 °F 30.06 in SSE 4.0 mph 6.0 mph 95 % 0.00 in
04:38 67.5 °F 66.0 °F 30.06 in SE 1.0 mph 7.0 mph 95 % 0.00 in
04:43 67.5 °F 66.0 °F 30.06 in SSE 4.0 mph 7.0 mph 95 % 0.00 in
04:48 67.5 °F 66.0 °F 30.06 in SSE 4.0 mph 7.0 mph 95 % 0.00 in
04:53 67.3 °F 65.8 °F 30.07 in SSE 1.0 mph 7.0 mph 95 % 0.00 in
04:58 67.3 °F 66.0 °F 30.07 in SSW 2.0 mph 7.0 mph 96 % 0.00 in
05:03 67.3 °F 66.0 °F 30.07 in SSE 6.0 mph 7.0 mph 96 % 0.00 in
05:08 67.5 °F 66.2 °F 30.07 in South 3.0 mph 10.0 mph 96 % 0.00 in
05:13 67.5 °F 66.2 °F 30.07 in South 2.0 mph 10.0 mph 96 % 0.00 in
05:18 67.3 °F 66.0 °F 30.07 in SSW 3.0 mph 10.0 mph 96 % 0.00 in
05:23 67.3 °F 66.0 °F 30.07 in South 3.0 mph 6.0 mph 96 % 0.00 in
05:28 67.5 °F 66.2 °F 30.08 in SSW 1.0 mph 6.0 mph 96 % 0.00 in
05:34 67.3 °F 66.0 °F 30.08 in South 1.0 mph 6.0 mph 96 % 0.00 in
05:39 67.3 °F 66.0 °F 30.08 in SW 1.0 mph 6.0 mph 96 % 0.00 in
05:44 67.1 °F 65.8 °F 30.08 in Calm   4.0 mph 96 % 0.00 in
05:49 67.1 °F 65.8 °F 30.09 in Calm   4.0 mph 96 % 0.00 in
05:54 67.3 °F 66.0 °F 30.09 in Calm   3.0 mph 96 % 0.00 in
05:59 67.3 °F 66.0 °F 30.09 in Calm   2.0 mph 96 % 0.00 in
06:04 67.3 °F 66.4 °F 30.09 in Calm   2.0 mph 97 % 0.00 in
06:09 67.5 °F 66.2 °F 30.09 in Calm   4.0 mph 96 % 0.00 in
06:14 67.3 °F 66.0 °F 30.09 in Calm   4.0 mph 96 % 0.00 in
06:19 67.3 °F 66.0 °F 30.10 in Calm   4.0 mph 96 % 0.00 in
06:24 67.3 °F 66.4 °F 30.10 in Calm   2.0 mph 97 % 0.00 in
06:29 67.5 °F 66.6 °F 30.10 in SSW 1.0 mph 2.0 mph 97 % 0.00 in
06:34 67.3 °F 66.0 °F 30.11 in SSW 1.0 mph 3.0 mph 96 % 0.00 in
06:39 67.5 °F 66.2 °F 30.11 in WSW 1.0 mph 3.0 mph 96 % 0.00 in
06:44 67.3 °F 66.0 °F 30.11 in South 1.0 mph 4.0 mph 96 % 0.00 in
06:49 67.3 °F 66.0 °F 30.11 in SSW 1.0 mph 4.0 mph 96 % 0.00 in
06:54 67.3 °F 66.0 °F 30.11 in SSW 1.0 mph 4.0 mph 96 % 0.00 in
06:59 67.3 °F 66.0 °F 30.12 in SSW 1.0 mph 3.0 mph 96 % 0.00 in
07:04 67.3 °F 66.0 °F 30.12 in SSW 1.0 mph 2.0 mph 96 % 0.00 in
07:10 67.3 °F 66.0 °F 30.12 in Calm   2.0 mph 96 % 0.00 in
07:15 67.3 °F 66.0 °F 30.12 in Calm   2.0 mph 96 % 0.00 in
07:20 67.3 °F 66.0 °F 30.12 in Calm   2.0 mph 96 % 0.00 in
07:25 67.1 °F 65.8 °F 30.12 in Calm   2.0 mph 96 % 0.00 in
07:30 67.1 °F 65.8 °F 30.13 in Calm   1.0 mph 96 % 0.00 in
07:35 67.1 °F 66.2 °F 30.13 in SW 1.0 mph 1.0 mph 97 % 0.00 in
07:40 67.1 °F 66.2 °F 30.13 in Calm   1.0 mph 97 % 0.00 in
07:45 67.3 °F 66.4 °F 30.13 in Calm   1.0 mph 97 % 0.00 in
07:50 67.3 °F 66.4 °F 30.13 in SSE 2.0 mph 2.0 mph 97 % 0.00 in
07:55 67.5 °F 66.6 °F 30.13 in South 1.0 mph 2.0 mph 97 % 0.00 in
08:00 67.5 °F 66.6 °F 30.14 in South 2.0 mph 2.0 mph 97 % 0.00 in
08:05 67.5 °F 66.6 °F 30.14 in SSE 1.0 mph 2.0 mph 97 % 0.00 in
08:10 67.6 °F 66.7 °F 30.14 in Calm   3.0 mph 97 % 0.00 in
08:15 67.6 °F 66.7 °F 30.14 in SSE 2.0 mph 3.0 mph 97 % 0.00 in
08:20 67.8 °F 66.6 °F 30.14 in SSW 2.0 mph 3.0 mph 96 % 0.00 in
08:25 67.8 °F 66.6 °F 30.14 in SE 2.0 mph 4.0 mph 96 % 0.00 in
08:30 67.8 °F 66.6 °F 30.15 in Calm   4.0 mph 96 % 0.00 in
08:35 68.4 °F 67.1 °F 30.15 in Calm   4.0 mph 96 % 0.00 in
08:40 68.4 °F 67.1 °F 30.15 in Calm   3.0 mph 96 % 0.00 in
08:45 68.4 °F 67.1 °F 30.15 in SW 2.0 mph 3.0 mph 96 % 0.00 in
08:50 68.4 °F 66.9 °F 30.16 in SSW 3.0 mph 4.0 mph 95 % 0.00 in
08:55 68.4 °F 66.9 °F 30.16 in Calm   4.0 mph 95 % 0.00 in
09:00 68.4 °F 66.9 °F 30.16 in SW 1.0 mph 4.0 mph 95 % 0.00 in
09:05 68.4 °F 66.9 °F 30.16 in Calm   3.0 mph 95 % 0.00 in
09:10 68.4 °F 66.9 °F 30.17 in SW 1.0 mph 3.0 mph 95 % 0.00 in
09:15 68.4 °F 66.9 °F 30.17 in South 1.0 mph 5.0 mph 95 % 0.00 in
09:20 68.4 °F 66.9 °F 30.17 in Calm   5.0 mph 95 % 0.00 in
09:25 68.0 °F 66.2 °F 30.17 in WNW 3.0 mph 7.0 mph 94 % 0.00 in
09:30 67.5 °F 65.7 °F 30.17 in West 4.0 mph 7.0 mph 94 % 0.00 in
09:35 66.6 °F 64.4 °F 30.17 in Calm   8.0 mph 93 % 0.00 in
09:40 66.0 °F 63.7 °F 30.18 in WNW 1.0 mph 8.0 mph 92 % 0.00 in
09:46 65.3 °F 63.0 °F 30.18 in North 1.0 mph 8.0 mph 92 % 0.00 in
09:51 64.9 °F 62.6 °F 30.18 in NW 1.0 mph 8.0 mph 92 % 0.00 in
09:56 64.8 °F 62.4 °F 30.18 in NNW 3.0 mph 8.0 mph 92 % 0.00 in
10:01 64.0 °F 61.0 °F 30.19 in WNW 1.0 mph 10.0 mph 90 % 0.00 in
10:06 63.7 °F 60.4 °F 30.19 in NNW 1.0 mph 10.0 mph 89 % 0.00 in
10:11 63.7 °F 60.1 °F 30.19 in North 6.0 mph 10.0 mph 88 % 0.00 in
10:16 63.3 °F 60.1 °F 30.19 in NNW 6.0 mph 8.0 mph 89 % 0.00 in
10:21 63.0 °F 59.0 °F 30.19 in NNW 5.0 mph 8.0 mph 87 % 0.00 in
10:26 62.6 °F 58.6 °F 30.19 in NNW 4.0 mph 8.0 mph 87 % 0.00 in
10:31 62.6 °F 58.3 °F 30.20 in NNW 5.0 mph 7.0 mph 86 % 0.00 in
10:36 62.4 °F 58.1 °F 30.20 in NW 1.0 mph 8.0 mph 86 % 0.00 in
10:41 62.6 °F 58.1 °F 30.20 in NW 4.0 mph 8.0 mph 85 % 0.00 in
10:46 62.6 °F 57.7 °F 30.20 in NW 4.0 mph 8.0 mph 84 % 0.00 in
10:51 62.6 °F 57.7 °F 30.20 in Calm   7.0 mph 84 % 0.00 in
10:56 62.8 °F 57.6 °F 30.20 in NW 5.0 mph 7.0 mph 83 % 0.00 in
11:01 63.0 °F 57.4 °F 30.20 in North 4.0 mph 7.0 mph 82 % 0.00 in
11:06 63.3 °F 57.4 °F 30.19 in NW 3.0 mph 6.0 mph 81 % 0.00 in
11:11 64.0 °F 57.0 °F 30.19 in NW 9.0 mph 9.0 mph 78 % 0.00 in
11:16 64.0 °F 56.3 °F 30.19 in NNW 5.0 mph 9.0 mph 76 % 0.00 in
11:21 64.0 °F 56.3 °F 30.19 in WNW 4.0 mph 9.0 mph 76 % 0.00 in
11:26 64.8 °F 56.7 °F 30.19 in NNW 4.0 mph 9.0 mph 75 % 0.00 in
11:31 65.5 °F 56.7 °F 30.19 in NW 4.0 mph 8.0 mph 73 % 0.00 in
11:36 66.4 °F 57.4 °F 30.19 in NNW 4.0 mph 8.0 mph 73 % 0.00 in
11:41 66.6 °F 56.8 °F 30.18 in NNE 1.0 mph 8.0 mph 71 % 0.00 in
11:46 66.4 °F 57.4 °F 30.18 in NW 5.0 mph 10.0 mph 73 % 0.00 in
11:51 66.9 °F 57.6 °F 30.18 in NNW 8.0 mph 10.0 mph 72 % 0.00 in
11:56 67.1 °F 57.0 °F 30.19 in NNW 4.0 mph 10.0 mph 70 % 0.00 in
12:01 67.3 °F 56.8 °F 30.18 in West 4.0 mph 9.0 mph 69 % 0.00 in
12:07 67.3 °F 56.3 °F 30.18 in NNW 2.0 mph 9.0 mph 68 % 0.00 in
12:12 66.7 °F 55.8 °F 30.18 in NW 3.0 mph 9.0 mph 68 % 0.00 in
12:17 67.1 °F 55.8 °F 30.18 in NNW 3.0 mph 9.0 mph 67 % 0.00 in
12:22 67.3 °F 55.6 °F 30.18 in NNW 2.0 mph 8.0 mph 66 % 0.00 in
12:27 67.1 °F 54.9 °F 30.18 in NW 6.0 mph 8.0 mph 65 % 0.00 in
12:32 66.7 °F 54.1 °F 30.18 in NW 3.0 mph 10.0 mph 64 % 0.00 in
12:37 66.9 °F 54.9 °F 30.18 in WNW 2.0 mph 10.0 mph 65 % 0.00 in
12:42 67.1 °F 54.5 °F 30.18 in WSW 2.0 mph 10.0 mph 64 % 0.00 in
12:47 66.7 °F 54.1 °F 30.18 in East 1.0 mph 9.0 mph 64 % 0.00 in
12:52 66.7 °F 54.1 °F 30.17 in WNW 1.0 mph 9.0 mph 64 % 0.00 in
12:57 66.9 °F 54.0 °F 30.17 in WNW 3.0 mph 9.0 mph 63 % 0.00 in
13:02 66.6 °F 53.6 °F 30.17 in NW 5.0 mph 10.0 mph 63 % 0.00 in
13:07 66.0 °F 53.1 °F 30.17 in North 5.0 mph 10.0 mph 63 % 0.00 in
13:12 66.2 °F 52.9 °F 30.17 in WNW 7.0 mph 10.0 mph 62 % 0.00 in
13:17 65.8 °F 52.5 °F 30.17 in NW 6.0 mph 11.0 mph 62 % 0.00 in
13:22 66.2 °F 52.3 °F 30.16 in NW 6.0 mph 11.0 mph 61 % 0.00 in
13:27 65.8 °F 52.5 °F 30.16 in NW 6.0 mph 12.0 mph 62 % 0.00 in
13:32 66.0 °F 52.7 °F 30.16 in NW 6.0 mph 12.0 mph 62 % 0.00 in
13:37 65.7 °F 51.8 °F 30.16 in WNW 5.0 mph 12.0 mph 61 % 0.00 in
13:42 65.7 °F 52.3 °F 30.16 in NNW 6.0 mph 12.0 mph 62 % 0.00 in
13:47 65.5 °F 52.2 °F 30.15 in WNW 7.0 mph 12.0 mph 62 % 0.00 in
13:52 65.7 °F 52.7 °F 30.16 in NW 4.0 mph 12.0 mph 63 % 0.00 in
13:57 65.8 °F 52.5 °F 30.15 in NNW 3.0 mph 12.0 mph 62 % 0.00 in
14:02 66.4 °F 52.9 °F 30.15 in NNW 6.0 mph 12.0 mph 62 % 0.00 in
14:07 66.0 °F 52.2 °F 30.16 in NNW 5.0 mph 8.0 mph 61 % 0.00 in
14:12 65.7 °F 52.7 °F 30.15 in Calm   9.0 mph 63 % 0.00 in
14:17 65.1 °F 52.2 °F 30.15 in NW 5.0 mph 11.0 mph 63 % 0.00 in
14:22 65.1 °F 52.2 °F 30.15 in West 3.0 mph 11.0 mph 63 % 0.00 in
14:27 64.9 °F 52.0 °F 30.15 in NW 5.0 mph 11.0 mph 63 % 0.00 in
14:32 64.8 °F 51.8 °F 30.15 in NNW 8.0 mph 10.0 mph 63 % 0.00 in
14:37 64.8 °F 51.4 °F 30.16 in NNW 9.0 mph 10.0 mph 62 % 0.00 in
14:42 64.6 °F 50.9 °F 30.16 in NNW 7.0 mph 10.0 mph 61 % 0.00 in
14:47 64.2 °F 50.9 °F 30.16 in NNW 7.0 mph 10.0 mph 62 % 0.00 in
14:52 64.0 °F 50.4 °F 30.15 in NW 5.0 mph 11.0 mph 61 % 0.00 in
14:57 64.2 °F 50.5 °F 30.16 in NNW 5.0 mph 11.0 mph 61 % 0.00 in
15:02 64.2 °F 50.5 °F 30.16 in NW 3.0 mph 11.0 mph 61 % 0.00 in
15:07 64.4 °F 50.2 °F 30.16 in NNW 3.0 mph 9.0 mph 60 % 0.00 in
15:12 64.2 °F 49.6 °F 30.16 in NW 3.0 mph 9.0 mph 59 % 0.00 in
15:17 64.0 °F 49.8 °F 30.16 in NW 7.0 mph 9.0 mph 60 % 0.00 in
15:22 64.0 °F 49.8 °F 30.16 in West 2.0 mph 9.0 mph 60 % 0.00 in
15:27 64.4 °F 49.8 °F 30.16 in North 9.0 mph 11.0 mph 59 % 0.00 in
15:32 64.2 °F 50.0 °F 30.15 in NNW 3.0 mph 11.0 mph 60 % 0.00 in
15:37 64.0 °F 49.5 °F 30.15 in NW 5.0 mph 11.0 mph 59 % 0.00 in
15:42 63.9 °F 49.3 °F 30.16 in NNW 3.0 mph 10.0 mph 59 % 0.00 in
15:47 63.9 °F 49.3 °F 30.15 in WNW 5.0 mph 10.0 mph 59 % 0.00 in
15:52 64.0 °F 49.5 °F 30.16 in NNW 3.0 mph 10.0 mph 59 % 0.00 in
15:57 64.0 °F 49.5 °F 30.16 in NW 7.0 mph 10.0 mph 59 % 0.00 in
16:02 64.2 °F 49.6 °F 30.16 in NNW 2.0 mph 9.0 mph 59 % 0.00 in
16:07 64.2 °F 49.6 °F 30.16 in NW 3.0 mph 9.0 mph 59 % 0.00 in
16:12 64.6 °F 50.0 °F 30.16 in NW 7.0 mph 9.0 mph 59 % 0.00 in
16:17 64.6 °F 50.0 °F 30.16 in NW 6.0 mph 8.0 mph 59 % 0.00 in
16:22 64.8 °F 50.2 °F 30.16 in NW 4.0 mph 9.0 mph 59 % 0.00 in
16:27 64.9 °F 50.2 °F 30.16 in NW 4.0 mph 9.0 mph 59 % 0.00 in
16:32 64.9 °F 50.2 °F 30.16 in NW 3.0 mph 9.0 mph 59 % 0.00 in
16:37 64.9 °F 50.2 °F 30.16 in NNW 4.0 mph 7.0 mph 59 % 0.00 in
16:42 65.1 °F 50.4 °F 30.16 in NW 3.0 mph 8.0 mph 59 % 0.00 in
16:47 65.1 °F 50.4 °F 30.16 in NNW 4.0 mph 9.0 mph 59 % 0.00 in
16:52 65.5 °F 50.7 °F 30.16 in WNW 2.0 mph 9.0 mph 59 % 0.00 in
16:57 65.1 °F 50.0 °F 30.17 in NW 3.0 mph 9.0 mph 58 % 0.00 in
17:02 64.9 °F 50.2 °F 30.17 in North 4.0 mph 9.0 mph 59 % 0.00 in
17:07 64.9 °F 50.2 °F 30.17 in NW 6.0 mph 9.0 mph 59 % 0.00 in
17:12 64.8 °F 50.2 °F 30.17 in North 3.0 mph 10.0 mph 59 % 0.00 in
17:17 64.6 °F 50.4 °F 30.17 in North 2.0 mph 10.0 mph 60 % 0.00 in
17:22 64.6 °F 50.4 °F 30.17 in NNW 2.0 mph 10.0 mph 60 % 0.00 in
17:28 64.4 °F 49.8 °F 30.17 in NW 2.0 mph 7.0 mph 59 % 0.00 in
17:33 64.0 °F 49.5 °F 30.17 in NW 2.0 mph 6.0 mph 59 % 0.00 in
17:38 63.9 °F 49.6 °F 30.17 in NW 3.0 mph 7.0 mph 60 % 0.00 in
17:43 63.9 °F 49.6 °F 30.18 in NW 2.0 mph 7.0 mph 60 % 0.00 in
17:48 63.7 °F 49.5 °F 30.18 in NNW 3.0 mph 7.0 mph 60 % 0.00 in
17:53 63.3 °F 49.3 °F 30.18 in NNW 5.0 mph 6.0 mph 60 % 0.00 in
17:58 63.1 °F 49.1 °F 30.18 in WNW 4.0 mph 8.0 mph 60 % 0.00 in
18:03 63.0 °F 48.9 °F 30.18 in NW 4.0 mph 8.0 mph 60 % 0.00 in
18:08 62.8 °F 48.2 °F 30.19 in WNW 2.0 mph 8.0 mph 59 % 0.00 in
18:13 62.6 °F 48.0 °F 30.19 in NNW 5.0 mph 11.0 mph 59 % 0.00 in
18:18 62.4 °F 47.8 °F 30.19 in NW 3.0 mph 11.0 mph 59 % 0.00 in
18:23 62.4 °F 47.8 °F 30.19 in NNW 3.0 mph 11.0 mph 59 % 0.00 in
18:28 62.4 °F 47.8 °F 30.19 in NW 8.0 mph 8.0 mph 59 % 0.00 in
18:33 62.2 °F 48.2 °F 30.19 in NNW 5.0 mph 8.0 mph 60 % 0.00 in
18:38 62.2 °F 48.2 °F 30.19 in NW 2.0 mph 8.0 mph 60 % 0.00 in
18:43 62.2 °F 48.2 °F 30.19 in NNW 5.0 mph 8.0 mph 60 % 0.00 in
18:48 62.2 °F 48.2 °F 30.19 in NNE 6.0 mph 7.0 mph 60 % 0.00 in
18:53 62.1 °F 48.0 °F 30.20 in NW 3.0 mph 6.0 mph 60 % 0.00 in
18:58 62.1 °F 48.0 °F 30.20 in NW 1.0 mph 6.0 mph 60 % 0.00 in
19:03 62.1 °F 48.4 °F 30.20 in NW 2.0 mph 6.0 mph 61 % 0.00 in
19:08 61.9 °F 48.2 °F 30.20 in NW 1.0 mph 6.0 mph 61 % 0.00 in
19:13 61.9 °F 48.2 °F 30.20 in NW 1.0 mph 6.0 mph 61 % 0.00 in
19:18 61.9 °F 48.2 °F 30.20 in NW 1.0 mph 5.0 mph 61 % 0.00 in
19:23 61.5 °F 48.4 °F 30.20 in NNE 2.0 mph 5.0 mph 62 % 0.00 in
19:28 61.5 °F 48.4 °F 30.20 in NW 1.0 mph 5.0 mph 62 % 0.00 in
19:33 61.3 °F 48.2 °F 30.20 in NW 2.0 mph 5.0 mph 62 % 0.00 in
19:38 61.2 °F 48.4 °F 30.21 in Calm   4.0 mph 63 % 0.00 in
19:43 61.2 °F 48.4 °F 30.21 in Calm   4.0 mph 63 % 0.00 in
19:48 61.0 °F 48.4 °F 30.21 in NNW 2.0 mph 4.0 mph 63 % 0.00 in
19:53 61.0 °F 48.7 °F 30.21 in NNW 2.0 mph 3.0 mph 64 % 0.00 in
19:58 60.6 °F 48.4 °F 30.21 in NNW 2.0 mph 4.0 mph 64 % 0.00 in
20:03 60.6 °F 48.4 °F 30.21 in NW 3.0 mph 9.0 mph 64 % 0.00 in
20:04 60.6 °F 48.4 °F 30.21 in NW 2.0 mph 9.0 mph 64 % 0.00 in
20:09 60.4 °F 48.2 °F 30.21 in NNE 4.0 mph 9.0 mph 64 % 0.00 in
20:14 60.3 °F 48.0 °F 30.22 in North 3.0 mph 9.0 mph 64 % 0.00 in
20:19 60.1 °F 47.8 °F 30.22 in NW 3.0 mph 9.0 mph 64 % 0.00 in
20:24 59.9 °F 47.7 °F 30.21 in NW 3.0 mph 8.0 mph 64 % 0.00 in
20:29 59.7 °F 47.5 °F 30.21 in NW 4.0 mph 9.0 mph 64 % 0.00 in
20:34 59.5 °F 47.3 °F 30.21 in NNW 3.0 mph 9.0 mph 64 % 0.00 in
20:39 59.4 °F 47.1 °F 30.22 in WSW 1.0 mph 9.0 mph 64 % 0.00 in
20:44 59.2 °F 47.5 °F 30.22 in NW 3.0 mph 9.0 mph 65 % 0.00 in
20:49 58.8 °F 47.1 °F 30.22 in NW 3.0 mph 10.0 mph 65 % 0.00 in
20:54 58.6 °F 47.3 °F 30.22 in NW 4.0 mph 10.0 mph 66 % 0.00 in
20:59 58.5 °F 47.5 °F 30.22 in NNW 3.0 mph 10.0 mph 67 % 0.00 in
21:04 58.5 °F 48.0 °F 30.22 in WNW 8.0 mph 8.0 mph 68 % 0.00 in
21:09 58.3 °F 47.8 °F 30.23 in NNE 2.0 mph 8.0 mph 68 % 0.00 in
21:14 58.1 °F 47.7 °F 30.23 in NW 4.0 mph 9.0 mph 68 % 0.00 in
21:24 57.6 °F 47.8 °F 30.23 in North 2.0 mph 9.0 mph 70 % 0.00 in
21:29 57.4 °F 48.0 °F 30.23 in NW 2.0 mph 6.0 mph 71 % 0.00 in
21:34 57.0 °F 48.0 °F 30.23 in NW 2.0 mph 6.0 mph 72 % 0.00 in
21:39 56.8 °F 48.6 °F 30.23 in NNW 3.0 mph 6.0 mph 74 % 0.00 in
21:44 56.7 °F 48.7 °F 30.23 in NW 4.0 mph 9.0 mph 75 % 0.00 in
21:50 56.5 °F 48.9 °F 30.23 in NNW 1.0 mph 9.0 mph 76 % 0.00 in
21:55 56.1 °F 48.9 °F 30.23 in NNW 4.0 mph 9.0 mph 77 % 0.00 in
22:00 56.1 °F 49.3 °F 30.23 in WNW 1.0 mph 11.0 mph 78 % 0.00 in
22:05 55.9 °F 49.1 °F 30.23 in NE 1.0 mph 11.0 mph 78 % 0.00 in
22:10 55.8 °F 49.3 °F 30.24 in North 4.0 mph 11.0 mph 79 % 0.00 in
22:15 55.6 °F 49.1 °F 30.24 in NNW 4.0 mph 7.0 mph 79 % 0.00 in
22:20 55.4 °F 49.3 °F 30.23 in NNE 1.0 mph 6.0 mph 80 % 0.00 in
22:25 55.2 °F 49.5 °F 30.23 in North 1.0 mph 7.0 mph 81 % 0.00 in
22:30 55.0 °F 49.3 °F 30.23 in NNW 2.0 mph 8.0 mph 81 % 0.00 in
22:35 55.0 °F 49.6 °F 30.23 in NW 1.0 mph 9.0 mph 82 % 0.00 in
22:40 54.9 °F 49.5 °F 30.23 in NW 1.0 mph 9.0 mph 82 % 0.00 in
22:45 54.7 °F 49.3 °F 30.23 in Calm   9.0 mph 82 % 0.00 in
22:50 54.3 °F 48.9 °F 30.23 in NNW 5.0 mph 6.0 mph 82 % 0.00 in
22:55 54.3 °F 49.3 °F 30.23 in NNW 1.0 mph 7.0 mph 83 % 0.00 in
23:00 54.1 °F 49.1 °F 30.23 in Calm   7.0 mph 83 % 0.00 in
23:05 54.0 °F 49.3 °F 30.23 in Calm   7.0 mph 84 % 0.00 in
23:10 53.8 °F 49.1 °F 30.23 in North 2.0 mph 5.0 mph 84 % 0.00 in
23:15 53.8 °F 49.5 °F 30.23 in North 3.0 mph 5.0 mph 85 % 0.00 in
23:20 53.8 °F 49.5 °F 30.23 in NW 1.0 mph 4.0 mph 85 % 0.00 in
23:25 53.6 °F 49.3 °F 30.23 in Calm   4.0 mph 85 % 0.00 in
23:30 53.6 °F 49.5 °F 30.23 in North 1.0 mph 4.0 mph 86 % 0.00 in
23:35 53.6 °F 49.5 °F 30.22 in Calm   3.0 mph 86 % 0.00 in
23:40 53.6 °F 49.5 °F 30.22 in Calm   3.0 mph 86 % 0.00 in
23:45 53.8 °F 49.6 °F 30.22 in Calm   3.0 mph 86 % 0.00 in
23:50 53.8 °F 50.0 °F 30.22 in Calm   3.0 mph 87 % 0.00 in
23:56 53.8 °F 50.0 °F 30.22 in Calm   4.0 mph 87 % 0.00 in
Spring, Texas: Villages of Bridgestone
Compliments of Weather Underground - 3.25 mb

Script developed by  Jim McMurry - jmcmurry@mwt.net Adapted for the template by  Wim van der Kuil - Leuven-Template.eu

You find our weather info also at:

UK Metoffice

WeatherCloud

Weather Underground

Mid-South Weather Network

AWEKAS

Citizen Weather Observer Program (CWOP)

HAMweather, WeatherForYou, PWS Weather

Equipment we use:

Weather-station
Davis Vantage Vue

Weather-program
Meteohub

Weather-server
Debian 7.9 x86 (Guest)

Provider
DreamHost

Davis Vantage Vue

Meteohub

Debian 7.9 x86 (Guest)

DreamHost